CAPE
1424 2023 2678 2984 2992 238 450 337 278 337 181 217 360 788 951 882 1035 69 0 0 312 615 545 1229 2287 1827 1960 1863 1797 2019 1860 1674 1615 1574 1258 1275 1389 1333 1273 1195 1390 1529 1584 659 1388 1760 1748 1374 1459
2577 2461 3200 2998 1033 228 380 307 335 441 244 212 506 707 1193 1309 131 0 0 48 273 446 434 1386 2343 2052 1963 1685 1996 1907 1876 1801 1661 1623 1702 1567 1297 1248 1353 1630 1495 1579 1511 1422 864 1888 1801 1502 1333
3086 2686 3037 842 348 370 306 262 363 463 317 247 388 759 1224 925 0 0 0 126 194 421 849 1693 2375 2207 1924 1744 1685 1623 1540 1456 1412 1433 1548 1396 1517 1449 1526 1411 1163 1615 1429 1723 1421 1143 1184 1593 1781
3267 3791 2891 323 430 358 376 404 421 368 257 40 220 617 989 471 0 0 0 106 163 451 1138 2210 2351 2297 1826 2117 2117 1995 2049 1867 1613 1712 1722 1384 1522 1649 1607 1520 1595 1489 1555 1505 1505 1260 1412 1193 1265
2941 2586 956 363 304 307 295 537 460 321 162 110 52 888 743 349 261 0 4 214 142 491 1029 1971 2730 2083 2354 1829 1963 2197 1897 1391 1896 1362 1801 1561 1122 1456 1446 1462 1345 1643 1372 1319 1435 1356 1183 1172 1134
1786 562 327 250 312 428 465 624 596 403 318 62 320 816 883 560 32 0 26 210 122 400 281 1462 2523 2327 1910 2200 2014 2117 1510 1354 1807 1820 1625 1590 1617 1516 1133 1139 1312 1404 1425 942 1157 1374 1380 918 1071
891 377 191 161 196 307 475 662 471 379 301 52 120 564 489 457 211 158 205 50 88 352 401 656 1900 2505 1777 897 1742 2046 1770 2086 2153 1566 1356 1692 1169 1469 1363 1240 1343 769 876 1389 1319 1319 1063 833 656
649 641 163 265 143 384 545 585 434 479 225 207 449 846 542 505 455 549 629 281 111 476 754 697 1463 1549 772 659 2162 2264 1771 1570 1313 1254 1870 1667 1722 1599 1326 794 532 484 460 472 1205 1313 1262 737 748
553 643 140 168 258 447 676 636 618 585 343 628 618 427 531 505 465 574 673 579 427 564 779 668 945 1144 673 851 1243 1838 1379 1790 1848 1645 1606 1353 727 1229 1224 892 127 291 340 324 587 658 666 844 1182
124 75 41 81 161 355 637 739 754 654 601 769 845 447 674 550 591 611 639 745 607 705 540 567 400 587 395 880 1939 1662 909 1112 1212 957 1985 2250 1346 652 678 463 338 196 375 434 443 626 1120 1354 216
22 33 77 287 317 229 534 636 718 828 676 812 1082 857 567 555 571 576 595 626 664 738 624 578 425 592 279 1266 679 706 592 609 624 975 1179 1256 945 2119 275 752 927 830 259 992 1142 703 724 732 477
55 40 133 552 526 327 379 487 629 518 358 635 1110 876 438 382 368 388 393 389 556 613 624 665 675 816 544 488 391 1004 945 356 581 951 1361 2703 2113 1256 663 1261 2243 2335 1550 1097 159 138 207 1050 577
41 57 185 544 545 397 322 479 742 513 512 853 1055 653 317 162 153 136 168 209 346 459 531 555 826 1387 1120 787 487 643 455 561 1422 1479 1772 2438 2115 1573 1806 1642 1408 1302 1365 1018 834 815 242 193 359
5 34 131 357 466 390 408 562 834 825 770 882 901 765 425 131 29 17 42 105 152 237 301 303 580 1359 1461 1363 1000 873 854 943 1266 1801 2227 1904 1964 2440 2435 2168 2040 2286 2212 1710 1525 1502 585 572 1752
0 39 191 193 256 490 430 738 778 1002 859 938 855 724 521 173 4 49 114 145 254 251 213 199 298 789 1553 1508 1440 1156 892 733 983 953 1336 1765 1990 2603 2218 2491 2840 2830 1740 2401 2194 1619 915 299 575
19 40 78 262 67 450 282 366 943 1057 956 1022 924 742 596 178 134 230 398 697 790 827 496 216 96 296 1029 1137 1387 1441 1043 902 1135 1700 1602 2110 2000 1858 2438 2089 1828 2434 1630 1450 2207 2220 1963 2091 1774
161 33 190 206 8 250 272 573 1159 1054 1065 1088 1065 860 716 521 389 522 713 975 1131 1471 1157 456 254 177 596 967 1293 1645 1454 1512 1209 2341 2118 2205 2235 1847 2007 1656 2207 2352 1630 1666 1627 2188 2071 2156 1845
242 213 39 78 126 125 165 214 1075 1044 1120 1151 1095 1014 831 807 727 804 965 870 759 1336 1641 1196 619 688 1100 1267 1424 1304 1208 1320 2007 2850 2456 2387 2743 2300 2178 1789 2027 1813 961 1646 2491 1667 2001 2042 1899
162 288 139 111 11 15 176 291 835 1261 988 1148 1132 1159 1001 801 774 907 1015 1054 1001 1199 1505 1158 1105 1625 1374 1523 1661 1468 1397 2239 2545 2618 2562 2023 2155 2165 2407 2235 2025 1578 1086 1104 1189 894 1127 466 970
49 139 181 123 91 43 43 255 290 1121 1125 954 1054 1146 1176 993 836 879 986 971 988 1157 1738 1702 1701 1901 1746 1497 1614 1627 2827 2532 2879 2449 2837 2250 2003 1947 2029 1983 1721 1837 347 1165 910 833 204 108 1455
17 52 152 210 217 59 65 162 203 266 649 986 990 980 1051 1135 947 965 921 983 1031 1105 1306 1955 2399 2735 2460 2369 2042 1939 2126 2763 1574 1430 1840 2020 1763 1890 2054 1983 1625 801 719 68 464 235 1019 525 424
0 1 9 121 199 127 223 215 298 519 550 859 911 1013 948 1032 919 832 806 774 980 1157 1340 1676 2877 3042 2887 2845 2958 3709 2737 1940 1978 2139 1881 1861 2363 2237 2063 1727 505 185 81 396 480 222 269 815 87
0 0 36 138 100 162 142 168 170 429 338 461 1028 870 954 1028 1046 936 848 695 513 755 1144 1693 2538 3575 3815 3214 3535 2663 3164 2025 1908 1853 2138 2531 2741 2156 1662 310 156 114 27 265 178 89 102 0 3
0 0 7 31 15 80 169 255 141 255 9 218 329 522 897 952 1099 1019 992 1040 911 710 1144 1667 2597 4053 3652 3299 3002 3086 3731 2301 1915 2009 2439 2225 2510 1571 282 246 328 404 672 172 107 151 84 45 85
0 0 3 9 81 43 149 182 268 182 163 235 135 139 623 936 1118 1106 1084 1256 1335 1258 1332 1750 2839 3476 3467 2972 2840 2992 2819 2887 2575 2747 2111 2428 811 291 494 637 548 690 657 236 270 348 202 104 64
0 0 0 9 47 47 110 223 241 155 89 30 85 135 540 929 1000 1236 1147 1390 1732 1712 1683 1795 2638 3134 3077 2978 3192 3274 3199 2802 2461 2665 2279 1076 250 486 1026 652 651 717 510 309 381 396 84 235 60
0 0 0 0 3 21 107 8 141 225 73 92 169 203 438 821 1040 1210 1266 1384 1671 1906 1950 2028 2729 3270 2975 3114 3568 3792 3583 3252 2797 2791 2314 613 574 1228 1153 784 688 532 479 339 454 457 293 441 152
0 0 0 0 0 13 62 187 203 239 120 63 244 132 372 817 1004 1180 1287 1415 1559 1900 2045 2119 2660 3107 2771 2340 3105 3411 3263 3128 2966 2868 2035 670 1184 1858 1556 1116 691 672 1043 628 840 544 266 92 13
0 0 0 0 3 24 99 122 142 143 23 85 186 244 378 552 955 991 1251 1460 1462 1708 2025 2164 2491 2646 2325 2210 3056 3562 3036 2976 3336 2465 1169 1223 1637 1871 1803 1535 1243 797 751 622 501 186 93 8 11
0 0 0 2 14 185 170 194 0 5 64 11 137 248 510 510 832 965 1304 1535 1667 1904 2257 2357 2551 2322 2163 2681 3659 3010 3152 3494 2638 2201 1077 1507 1902 1945 1813 1458 1100 893 794 267 72 11 5 5 3
CIN
-346 -232 -95 -70 -7 -0 -0 -0 -0 -0 -0 -0 -0 -0 -0 -3 -0 -8 -0 -0 -2 -5 -41 -0 -0 -0 -0 -0 -1 -0 -0 -0 -0 -0 -0 -0 -0 -0 -0 -0 -0 -0 -0 -10 -0 -0 -0 -0 -0
-109 -148 -73 -18 -17 -0 -0 -0 -0 -0 -0 -2 -0 -0 -1 -1 -41 -0 -0 -44 -6 -11 -22 -0 -0 -0 -0 -1 -0 -2 -0 -0 -0 -1 -1 -0 -0 -0 -0 -0 -0 -0 -0 -0 -2 -0 -0 -0 -0
-135 -114 -4 -2 -0 -0 -0 -0 -0 -0 -0 -0 -3 -1 -0 -5 -0 -0 -0 -27 -6 -3 -0 -3 -0 -0 -0 -0 -0 -0 -0 -0 -0 -0 -0 -0 -0 -0 -0 -0 -0 -0 -0 -0 -0 -0 -0 -0 -0
-37 -0 -15 -5 -0 -0 -0 -0 -0 -0 -0 -51 -0 -9 -11 -15 -15 -0 -0 -23 -10 -0 -0 -1 -0 -0 -0 -0 -0 -0 -0 -0 -0 -0 -0 -0 -0 -0 -0 -0 -0 -0 -0 -0 -0 -0 -0 -0 -0
-29 -1 -33 -0 -1 -0 -0 -0 -0 -0 -1 -15 -41 -1 -26 -34 -51 -0 -86 -5 -9 -0 -13 -0 -0 -0 -0 -0 -0 -0 -0 -1 -0 -1 -0 -0 -0 -0 -1 -0 -0 -0 -0 -0 -0 -0 -0 -0 -0
-0 -0 -0 -8 -0 -0 -0 -0 -0 -0 -1 -26 -22 -6 -18 -42 -165 -0 -115 -5 -5 -0 -32 -5 -0 -0 -0 -0 -0 -0 -0 -5 -0 -0 -0 -1 -0 -0 -0 -0 -0 -0 -0 -0 -0 -0 -0 -0 -0
-0 -0 -10 -3 -3 -0 -1 -0 -0 -0 -0 -15 -9 -9 -42 -44 -89 -92 -28 -77 -25 -0 -10 -28 -0 -0 -0 -29 -0 -0 -0 -0 -0 -0 -1 -0 -4 -2 -1 -1 -0 -0 -0 -0 -0 -0 -0 -5 -12
-10 -0 -27 -1 -4 -1 -8 -0 -0 -0 -20 -15 -1 -12 -30 -40 -49 -14 -0 -4 -25 -0 -3 -19 -1 -0 -19 -36 -0 -0 -0 -0 -2 -3 -0 -0 -0 -3 -3 -10 -8 -6 -6 -0 -0 -0 -0 -5 -13
-3 -2 -27 -12 -0 -1 -10 -0 -13 -13 -27 -1 -1 -0 -20 -61 -37 -9 -0 -0 -3 -0 -0 -0 -0 -0 -0 -0 -5 -1 -3 -0 -0 -2 -8 -11 -8 -10 -13 -13 -36 -23 -17 -14 -1 -0 -0 -0 -2
-22 -49 -0 -32 -6 -0 -6 -2 -17 -2 -26 -13 -2 -25 -33 -48 -20 -9 -0 -0 -0 -0 -0 -0 -0 -0 -0 -0 -11 -0 -0 -0 -0 -0 -8 -8 -13 -1 -1 -13 -27 -32 -22 -18 -12 -8 -4 -1 -1
-3 -0 -58 -2 -7 -0 -3 -2 -3 -2 -0 -3 -2 -32 -49 -41 -13 -4 -0 -0 -0 -0 -0 -1 -0 -0 -0 -1 -0 -2 -0 -0 -0 -0 -0 -21 -29 -16 -40 -0 -6 -4 -60 -2 -4 -3 -0 -6 -13
-1 -0 -12 -6 -19 -11 -1 -11 -0 -9 -23 -15 -23 -45 -57 -49 -25 -6 -4 -8 -0 -1 -0 -0 -0 -0 -1 -0 -0 -0 -0 -1 -0 -1 -1 -14 -2 -40 -44 -2 -5 -4 -1 -46 -96 -86 -59 -0 -0
-0 -7 -2 -11 -18 -10 -18 -11 -8 -27 -25 -34 -45 -74 -77 -67 -30 -6 -13 -19 -14 -16 -4 -0 -0 -0 -0 -0 -0 -0 -0 -0 -14 -1 -3 -13 -4 -72 -16 -3 -0 -0 -7 -14 -13 -24 -60 -61 -29
-11 -7 -8 -3 -7 -13 -6 -15 -8 -29 -49 -51 -63 -63 -57 -67 -64 -44 -41 -38 -42 -39 -26 -19 -6 -0 -0 -0 -0 -0 -0 -0 -1 -19 -29 -0 -0 -8 -12 -1 -0 -0 -0 -0 -0 -0 -6 -10 -0
-0 -3 -1 -1 -0 -2 -7 -9 -3 -23 -51 -54 -65 -58 -52 -73 -94 -52 -14 -10 -21 -29 -34 -36 -38 -9 -3 -1 -1 -1 -0 -0 -0 -0 -3 -0 -0 -0 -0 -5 -20 -19 -38 -1 -0 -0 -0 -27 -6
-14 -37 -4 -2 -12 -8 -8 -25 -18 -30 -48 -58 -55 -62 -67 -90 -80 -38 -3 -0 -1 -0 -12 -51 -61 -10 -20 -4 -0 -0 -0 -1 -1 -9 -16 -1 -0 -2 -0 -0 -42 -27 -1 -0 -1 -0 -0 -0 -2
-0 -16 -0 -0 -14 -0 -1 -0 -19 -31 -28 -46 -54 -65 -68 -69 -57 -18 -0 -0 -4 -8 -4 -30 -30 -9 -2 -12 -2 -0 -0 -0 -0 -11 -20 -17 -1 -1 -0 -0 -12 -0 -0 -1 -0 -0 -0 -0 -1
-8 -1 -1 -4 -1 -3 -0 -1 -0 -24 -19 -30 -43 -67 -67 -56 -30 -12 -0 -0 -3 -22 -18 -32 -14 -4 -0 -0 -12 -0 -0 -0 -7 -13 -15 -1 -0 -1 -0 -1 -0 -0 -0 -0 -0 -0 -0 -0 -0
-0 -1 -0 -1 -36 -37 -1 -0 -3 -12 -18 -10 -21 -48 -59 -57 -41 -10 -1 -0 -0 -14 -28 -43 -30 -8 -7 -1 -0 -0 -0 -4 -11 -8 -0 -0 -0 -0 -0 -2 -8 -1 -4 -0 -0 -0 -0 -0 -1
-1 -0 -0 -0 -8 -19 -15 -0 -0 -3 -14 -17 -16 -25 -49 -47 -36 -28 -14 -1 -0 -0 -3 -19 -16 -12 -19 -0 -0 -0 -5 -15 -33 -29 -4 -0 -2 -5 -1 -2 -0 -0 -0 -0 -1 -0 -0 -0 -5
-13 -3 -0 -3 -0 -31 -17 -6 -1 -3 -5 -10 -13 -20 -36 -49 -48 -22 -26 -12 -1 -1 -4 -1 -5 -0 -6 -0 -0 -0 -0 -3 -20 -10 -12 -12 -13 -2 -0 -0 -0 -0 -0 -8 -3 -1 -1 -4 -1
-0 -0 -0 -1 -6 -0 -1 -0 -50 -0 -7 -20 -10 -12 -19 -57 -46 -31 -19 -32 -13 -1 -8 -10 -1 -0 -2 -2 -0 -0 -0 -3 -3 -0 -9 -12 -0 -0 -0 -0 -11 -37 -23 -1 -1 -6 -6 -4 -5
-0 -0 -0 -0 -0 -0 -0 -0 -0 -5 -0 -1 -2 -7 -10 -21 -44 -37 -12 -34 -57 -39 -22 -13 -6 -0 -0 -1 -3 -0 -0 -0 -0 -0 -0 -0 -0 -0 -0 -32 -44 -43 -38 -3 -4 -19 -13 -0 -0
-0 -0 -55 -22 -21 -1 -0 -0 -0 -19 -192 -0 -0 -0 -6 -13 -26 -27 -13 -0 -27 -43 -29 -18 -21 -0 -0 -0 -4 -0 -0 -0 -0 -0 -2 -0 -7 -0 -42 -37 -26 -15 -0 -10 -18 -5 -24 -23 -3
-0 -0 -2 -0 -1 -13 -0 -1 -1 -2 -20 -0 -1 -4 -3 -14 -11 -19 -24 -14 -21 -40 -36 -27 -28 -12 -6 -5 -4 -0 -0 -0 -0 -0 -0 -0 -0 -1 -26 -9 -4 -0 -4 -15 -3 -2 -14 -30 -31
-0 -0 -0 -0 -0 -0 -1 -0 -1 -3 -10 -19 -18 -1 -5 -3 -8 -15 -22 -19 -34 -44 -50 -37 -47 -31 -20 -10 -0 -0 -0 -0 -0 -3 -0 -0 -7 -5 -4 -6 -2 -0 -0 -0 -1 -0 -58 -28 -36
-0 -0 -0 -0 -0 -0 -29 -525 -4 -0 -7 -1 -0 -0 -3 -7 -11 -14 -15 -20 -28 -42 -59 -52 -60 -43 -36 -7 -0 -0 -0 -0 -3 -1 -1 -15 -2 -4 -3 -1 -0 -0 -0 -0 -1 -0 -7 -3 -42
-0 -0 -0 -0 -0 -0 -2 -7 -0 -1 -1 -7 -0 -5 -0 -2 -10 -6 -16 -21 -17 -33 -49 -59 -71 -56 -54 -32 -2 -0 -0 -0 -1 -0 -2 -15 -1 -0 -0 -0 -0 -1 -1 -2 -0 -0 -2 -13 -0
-0 -0 -0 -0 -0 -0 -2 -2 -110 -1 -20 -3 -0 -1 -0 -0 -4 -4 -18 -19 -34 -45 -57 -68 -73 -68 -56 -41 -6 -0 -0 -0 -0 -0 -7 -0 -0 -0 -0 -0 -0 -0 -0 -6 -0 -9 -24 -0 -0
-0 -0 -0 -0 -0 -0 -2 -3 -0 -8 -0 -10 -0 -0 -1 -7 -0 -7 -14 -20 -63 -73 -79 -85 -68 -64 -55 -28 -1 -0 -0 -0 -0 -0 -14 -0 -0 -0 -0 -0 -0 -0 -0 -1 -7 -2 -0 -0 -0
Wind_Speed
12 12 7 5 6 7 11 10 11 10 12 12 6 13 17 18 12 10 19 18 20 20 18 16 12 13 14 13 13 13 13 12 10 12 10 9 9 8 8 8 8 6 7 7 7 8 8 10 9
4 4 8 6 5 11 11 14 16 14 12 11 10 3 11 17 12 20 16 19 19 19 17 16 13 12 12 12 12 12 12 11 10 9 9 8 8 7 8 7 7 7 7 8 8 8 9 9 9
15 7 9 5 9 13 11 13 12 10 7 5 7 13 9 10 20 13 21 19 19 17 18 16 13 13 12 12 14 12 12 10 9 8 8 8 6 6 6 6 6 7 6 8 7 8 8 8 8
6 7 8 8 16 12 13 9 6 10 9 6 7 13 9 13 13 20 20 18 17 16 21 16 13 15 13 11 12 12 12 11 9 7 7 7 6 5 6 5 7 6 7 7 7 7 8 8 8
11 8 4 15 14 10 11 8 5 12 7 9 1 16 16 12 13 21 19 16 16 17 19 16 13 13 12 13 10 10 10 9 7 6 5 7 5 6 4 5 5 6 6 6 6 6 6 6 7
10 5 8 15 13 8 9 8 3 11 10 12 17 17 11 13 18 18 16 16 15 16 18 17 12 13 11 10 9 9 8 8 5 5 5 4 6 6 5 4 4 3 4 4 5 5 6 5 5
11 6 11 13 17 11 10 2 11 9 10 12 10 15 14 17 18 16 15 15 15 15 18 15 14 13 12 10 9 7 8 7 7 6 6 6 5 6 4 3 2 2 1 3 4 5 5 5 4
8 10 16 9 15 11 7 7 2 11 11 8 4 9 18 19 18 16 14 15 14 13 16 14 13 13 12 12 9 9 7 7 7 6 5 6 6 7 7 7 5 2 2 3 4 5 6 6 6
10 7 12 12 13 12 4 6 8 3 9 6 4 7 21 21 19 16 14 15 11 11 12 16 13 15 11 16 12 9 8 7 7 8 7 5 2 7 7 9 5 5 5 5 6 7 8 8 10
11 10 10 10 9 11 7 6 8 5 7 6 6 19 21 21 18 17 15 15 15 13 12 14 13 15 10 8 13 10 10 10 9 8 6 3 5 2 5 1 7 8 8 9 8 9 10 11 10
7 9 9 9 8 6 8 8 3 6 8 10 12 17 20 20 17 16 15 14 14 11 11 11 11 9 11 8 9 6 7 6 6 4 6 9 4 2 4 4 6 7 10 4 6 6 8 8 3
7 8 7 4 2 4 4 5 6 8 6 9 15 17 18 19 17 16 15 14 13 13 10 9 10 9 7 5 5 7 5 4 4 8 7 6 5 5 5 3 5 1 1 2 1 1 5 10 8
2 6 6 5 5 5 5 4 8 7 10 12 16 17 18 17 17 15 14 15 13 13 11 10 9 8 7 4 5 4 3 4 4 4 6 3 3 4 3 6 4 3 4 5 6 5 4 5 10
7 7 3 3 7 5 5 8 8 9 11 13 16 16 16 17 16 14 14 14 13 12 13 12 11 11 9 8 4 3 3 2 3 4 5 5 5 2 2 2 4 7 5 7 6 5 4 7 7
7 13 9 8 5 6 9 3 8 14 13 14 15 14 15 15 16 14 13 13 13 12 13 12 12 13 10 10 9 6 5 7 5 5 4 3 5 3 5 7 7 5 7 7 5 5 8 7 9
10 11 10 2 5 6 11 17 14 15 14 15 15 14 14 16 16 15 14 13 11 11 12 10 11 13 12 10 7 7 6 5 3 2 2 7 4 3 5 7 5 4 6 5 3 5 6 8 4
12 8 9 8 3 3 9 4 15 13 14 14 15 15 15 16 17 16 16 14 13 5 9 12 10 10 13 9 7 7 4 5 5 1 2 3 2 2 6 6 3 6 7 3 3 3 5 6 5
2 11 10 3 7 7 11 9 14 15 14 15 15 16 16 17 18 18 17 16 15 12 8 11 10 9 9 8 7 6 6 6 4 3 3 2 1 3 7 6 3 6 3 4 4 6 4 5 6
10 12 9 7 2 8 12 8 15 17 14 15 17 17 17 17 18 19 17 16 17 17 14 12 12 11 9 8 8 7 7 4 3 3 1 1 3 3 3 3 4 2 5 4 6 4 7 7 6
17 13 15 10 9 8 12 10 13 19 14 14 16 18 18 18 18 18 19 18 17 16 18 15 13 12 11 9 8 7 3 2 4 6 6 2 3 2 5 5 5 6 8 6 8 7 7 8 1
12 17 17 10 3 8 18 17 18 11 15 14 15 16 20 19 19 20 20 19 18 17 16 17 15 13 12 10 7 6 4 1 1 1 1 3 4 4 3 3 5 6 7 7 6 6 8 8 5
18 17 16 15 7 11 3 12 18 16 13 16 16 16 18 20 19 18 20 19 19 18 16 15 17 14 14 11 9 8 8 7 6 5 4 1 4 4 3 1 4 3 6 5 7 9 9 8 8
20 15 17 7 15 15 18 11 12 16 12 19 15 16 17 22 20 19 18 19 18 17 16 16 16 15 13 12 10 8 9 7 7 4 5 4 4 3 3 4 3 4 5 6 5 6 8 8 7
17 14 12 13 14 15 18 14 13 3 27 7 11 10 15 18 21 20 18 19 17 16 15 15 15 13 14 12 12 10 10 6 4 4 5 5 8 7 3 5 3 4 4 6 6 6 7 7 7
13 14 12 13 14 13 19 16 10 11 5 12 7 5 8 17 19 19 18 15 15 16 16 15 16 15 14 13 12 11 8 7 6 7 9 7 5 5 6 3 3 4 5 3 4 4 5 7 7
17 18 13 16 14 16 21 12 7 11 5 1 3 7 4 15 18 18 20 16 16 16 17 16 17 15 15 13 11 9 9 9 7 7 4 5 5 7 6 4 4 4 4 4 4 1 7 8 7
16 15 19 22 20 16 2 16 19 4 6 4 8 3 11 12 17 18 19 18 17 16 17 17 18 16 16 14 11 11 11 9 2 7 5 5 5 8 7 5 3 2 3 3 6 3 4 6 8
19 9 12 12 15 18 15 14 9 6 5 5 4 2 9 12 14 17 17 17 16 18 17 17 18 17 17 15 12 11 12 8 6 7 7 6 7 10 6 4 1 5 3 2 5 8 9 7 7
12 15 12 19 13 13 13 8 21 9 4 4 5 3 7 5 14 15 16 16 15 16 18 18 18 18 16 15 13 11 11 12 10 10 8 7 6 6 5 3 1 3 6 7 5 5 6 6 5
16 15 19 9 14 13 10 4 26 9 3 6 3 3 7 5 13 12 15 17 16 17 18 17 16 16 16 14 11 13 11 10 12 12 11 10 7 5 3 4 3 6 7 5 5 5 6 5 5
Wind_Direction
180 205 234 252 258 83 63 44 81 81 78 74 68 42 69 36 50 81 138 117 127 125 127 134 123 117 117 119 124 127 126 120 120 122 127 131 118 111 109 106 100 105 106 93 92 97 97 98 98
189 226 231 275 275 66 65 57 47 43 70 90 91 163 88 60 93 122 119 131 131 126 141 127 122 120 118 123 123 125 122 119 116 121 118 114 115 114 104 99 103 104 110 106 103 89 88 96 101
252 275 273 334 30 59 63 72 70 73 71 64 106 34 23 95 116 118 123 139 130 141 120 115 131 126 133 140 130 127 126 127 133 125 124 117 116 122 116 105 110 115 113 107 110 103 100 96 100
277 216 248 39 73 44 75 81 119 126 104 57 99 93 88 116 124 120 136 142 132 140 114 127 131 132 138 128 127 135 132 130 130 132 149 136 114 109 106 122 114 111 101 103 107 106 103 108 107
235 239 256 78 59 60 80 57 15 84 58 63 85 91 108 102 116 133 144 150 141 127 123 135 138 136 130 144 145 132 131 131 125 122 104 136 127 107 121 121 112 111 112 110 120 117 113 109 118
269 252 55 71 69 83 74 88 312 90 87 94 105 109 104 127 135 142 152 140 147 127 141 135 142 143 139 141 142 142 138 133 137 137 120 115 124 130 129 129 122 113 130 124 128 132 129 139 138
292 325 67 63 80 64 56 57 22 89 105 102 129 106 127 143 141 148 157 145 133 144 128 146 149 141 144 149 153 159 148 142 145 142 137 141 149 137 141 146 143 151 137 126 159 161 163 171 177
283 272 77 63 70 57 86 61 99 41 72 111 119 123 153 144 153 156 154 146 148 149 142 146 151 158 165 154 151 146 157 163 159 169 188 180 192 185 183 184 183 200 217 206 187 191 199 204 203
266 277 55 28 42 93 114 82 60 59 124 52 71 139 137 145 158 158 161 144 156 153 165 153 170 153 190 149 152 165 171 178 180 185 195 201 271 171 190 141 181 195 205 224 228 224 226 225 228
301 43 22 28 35 82 98 69 95 128 103 125 107 107 134 155 162 161 168 150 168 160 182 157 177 151 181 148 142 188 167 188 198 184 153 155 214 262 318 165 190 222 225 232 223 230 234 225 247
10 27 12 63 30 56 93 113 113 172 158 130 133 139 152 159 168 168 170 163 164 174 181 162 170 150 163 137 153 186 172 178 171 190 211 159 204 99 254 245 199 217 225 226 220 249 258 296 275
292 42 16 61 136 106 94 109 112 46 42 105 133 150 158 167 173 172 171 161 164 178 181 181 155 143 189 158 203 183 176 182 186 175 212 165 184 197 256 289 272 257 209 67 106 270 296 290 270
318 355 68 110 163 130 142 119 97 94 102 110 133 154 165 176 175 172 170 160 165 176 179 181 164 159 197 200 197 243 178 192 98 159 195 182 224 185 187 232 278 252 218 241 238 235 255 279 282
359 300 76 199 133 155 182 149 193 125 125 132 147 163 170 178 179 168 172 159 175 178 174 176 188 169 191 201 235 257 255 212 199 172 163 196 267 281 259 236 242 241 269 264 249 241 263 267 251
275 261 172 170 174 163 219 167 172 140 146 150 162 171 172 176 176 171 172 168 177 180 166 181 190 170 195 203 187 222 221 217 235 235 166 231 266 297 349 293 234 241 217 232 261 228 239 249 261
257 250 237 70 184 160 256 211 114 155 167 165 168 176 174 175 174 172 171 160 163 180 164 192 191 178 181 196 193 216 218 255 241 320 295 180 199 281 274 280 262 23 306 317 351 273 267 275 294
201 220 279 145 153 319 242 143 129 172 180 176 178 181 180 181 181 175 177 164 162 156 178 182 190 197 168 190 210 230 215 234 264 68 297 260 213 301 284 280 290 1 297 15 335 309 276 277 268
30 263 161 262 97 227 271 284 146 174 195 185 190 183 187 189 188 176 184 177 167 176 192 187 186 204 178 177 213 221 229 237 235 206 236 227 358 229 264 280 20 314 329 360 338 315 316 266 292
306 291 314 130 102 282 273 317 173 169 194 196 193 187 193 197 187 183 190 189 183 170 183 186 206 180 189 199 199 210 219 214 211 221 227 269 279 243 262 303 290 305 273 309 275 300 266 296 237
251 259 252 225 156 264 284 292 294 159 187 209 202 186 199 194 194 191 188 192 195 192 178 189 191 190 200 199 216 228 195 185 54 26 18 337 348 333 266 330 350 16 335 289 21 323 298 304 143
257 242 257 339 334 285 262 257 249 172 176 196 208 207 188 199 200 189 189 198 194 196 198 185 194 185 192 217 202 206 255 359 336 267 234 209 222 233 82 358 335 358 285 19 332 349 5 329 357
241 239 260 277 265 272 223 293 197 163 181 185 194 205 200 191 196 201 192 194 195 190 193 197 185 197 193 201 189 200 197 209 196 198 158 179 172 213 129 232 21 12 321 33 6 22 344 353 346
257 258 265 270 252 260 254 250 278 182 211 183 187 188 208 183 197 202 198 183 196 187 185 185 187 192 202 196 239 184 232 190 214 144 138 142 181 176 110 54 38 25 7 54 31 10 14 340 337
252 250 257 266 257 255 263 257 268 182 1 120 151 147 185 200 192 191 203 183 182 178 175 174 178 186 198 195 202 214 186 229 176 179 161 160 201 152 107 89 74 50 7 44 42 3 43 15 355
240 239 240 229 229 246 250 241 253 312 189 34 61 68 182 190 190 191 191 191 169 174 171 170 168 178 187 189 192 194 196 191 178 173 208 178 125 137 119 118 37 69 69 65 358 34 342 40 354
208 239 238 239 251 251 230 229 211 264 41 297 196 179 150 183 190 193 189 194 168 177 171 171 171 176 179 183 183 184 184 191 217 214 126 207 129 104 121 106 78 50 54 9 360 343 346 6 352
233 219 257 264 267 272 310 11 265 224 248 290 230 135 153 185 189 191 190 190 172 178 174 172 169 172 177 177 177 177 184 217 175 128 154 135 119 128 129 123 94 50 81 10 338 338 5 15 349
257 265 227 242 269 274 283 181 237 163 195 321 340 19 146 171 193 184 194 186 171 174 175 177 172 174 174 172 180 178 177 179 156 149 204 148 112 95 135 137 149 48 76 355 348 348 56 14 4
202 244 250 268 224 253 266 263 2 111 101 290 357 314 55 185 173 194 185 174 164 170 170 181 176 172 175 170 182 173 179 166 174 164 150 149 146 135 118 131 60 38 28 28 360 344 52 360 358
233 216 241 234 243 277 307 265 176 266 189 208 302 46 56 297 161 191 173 158 161 173 171 178 177 171 177 169 173 171 173 163 181 161 161 158 144 135 141 82 77 47 54 41 21 356 6 9 8